This demonstration page uses our WeatherBlox Daily Observations layout. Learn more.

Left ArrowRight Arrow

Hourly Observations for December 9, 2022

Temp ( °F °C ) Dew Point ( °F °C ) Humidity (%) Winds ( mph kmh ) Pressure ( in mb ) Visibility ( mi km ) Precip ( " mm )
12:53 am 00:53 Cloudy with Mist and Fog 66 18.9 65 18.3 96 96 Calm 30.07 1018 5 8 0.00 0.00
1:53 am 01:53 Mostly Cloudy with Mist and Fog 66 18.9 65 18.3 96 96 Calm 30.07 1018 6 10 0.00 0.00
2:27 am 02:27 Mostly Cloudy with Mist and Fog 65 18.3 65 18.3 100 100 Calm 30.08 1019 5 8 0.00 0.00
2:53 am 02:53 Mostly Cloudy with Mist and Fog 65 18.3 65 18.3 100 100 Calm 30.08 1019 5 8 0.00 0.00
3:17 am 03:17 Mostly Cloudy with Mist and Fog 64 17.8 64 17.8 100 100 Calm 30.09 1019 2 3 0.00 0.00
3:24 am 03:24 Mostly Cloudy with Mist and Fog 64 17.8 64 17.8 100 100 Calm 30.09 1019 2 3 0.00 0.00
3:53 am 03:53 Cloudy with Light Rain 65 18.3 65 18.3 100 100 Calm 30.08 1019 2 3 0.07 1.78
4:06 am 04:06 Cloudy with Mist and Fog 65 18.3 65 18.3 100 100 Calm 30.09 1019 4 6 0.01 0.25
4:53 am 04:53 Cloudy with Light Rain 66 18.9 65 18.3 96 96 NE 6 9 30.09 1019 3 5 0.01 0.25
5:00 am 05:00 Cloudy with Rain 66 18.9 65 18.3 96 96 N 6 9 30.08 1019 3 5 0.01 0.13
5:44 am 05:44 Cloudy with Mist and Fog 65 18.3 64 17.8 97 97 NE 9 15 30.09 1019 4 6 0.01 0.25
5:53 am 05:53 Cloudy with Mist and Fog 64 17.8 63 17.2 96 96 NE 7 11 30.09 1019 4 6 0.01 0.25
6:36 am 06:36 Cloudy with Mist and Fog 63 17.2 62 16.7 97 97 NE 6 9 30.11 1020 6 10 0.00 0.00
6:53 am 06:53 Cloudy 63 17.2 61 16.1 93 93 NE 5 7 30.11 1020 7 11 0.00 0.00
7:53 am 07:53 Mostly Cloudy with Mist and Fog 62 16.7 60 15.6 93 93 NNE 3 6 30.13 1020 6 10 0.00 0.00
8:44 am 08:44 Cloudy with Mist and Fog 61 16.1 58 14.4 90 90 NNE 6 9 30.16 1021 6 10 0.00 0.00
8:53 am 08:53 Cloudy with Mist and Fog 61 16.1 58 14.4 90 90 NNE 8 13 30.15 1021 6 10 0.00 0.00
9:33 am 09:33 Cloudy with Mist and Fog 61 16.1 58 14.4 90 90 N 7 11 30.17 1022 6 10 0.00 0.00
9:53 am 09:53 Cloudy with Mist and Fog 60 15.6 57 13.9 90 90 NNE 8 13 30.16 1022 6 10 0.00 0.00
10:53 am 10:53 Cloudy with Mist and Fog 60 15.6 58 14.4 93 93 NNE 9 15 30.16 1021 5 8 0.00 0.00
11:43 am 11:43 Cloudy 62 16.7 58 14.4 86 86 NE 7 11 30.15 1021 9 14 0.00 0.00
11:53 am 11:53 Cloudy with Haze 62 16.7 57 13.9 84 84 VRB 7 11 30.13 1020 6 10 0.00 0.00
12:01 pm 12:01 Cloudy 62 16.7 57 13.9 84 84 VRB 3 6 30.13 1020 7 11 0.00 0.00
12:53 pm 12:53 Cloudy 63 17.2 58 14.4 84 84 NE 7 11 30.10 1019 8 13 0.00 0.00
1:53 pm 13:53 Cloudy 63 17.2 58 14.4 84 84 NE 5 7 30.08 1019 8 13 0.00 0.00
2:53 pm 14:53 Cloudy 62 16.7 58 14.4 86 86 ENE 7 11 30.07 1018 10 16 0.00 0.00
3:53 pm 15:53 Cloudy 62 16.7 59 15 90 90 E 7 11 30.06 1018 7 11 0.00 0.00
4:53 pm 16:53 Cloudy 63 17.2 60 15.6 90 90 VRB 6 9 30.05 1018 7 11 0.00 0.00
5:32 pm 17:32 Cloudy 63 17.2 60 15.6 90 90 E 3 6 30.06 1018 7 11 0.00 0.00
5:53 pm 17:53 Cloudy 63 17.2 60 15.6 90 90 ENE 6 9 30.05 1018 7 11 0.00 0.00
6:53 pm 18:53 Cloudy with Mist and Fog 63 17.2 61 16.1 93 93 VRB 3 6 30.05 1018 6 10 0.00 0.00
7:53 pm 19:53 Cloudy with Mist and Fog 63 17.2 61 16.1 93 93 E 6 9 30.05 1018 5 8 0.00 0.00
8:53 pm 20:53 Cloudy with Mist and Fog 63 17.2 62 16.7 97 97 E 5 7 30.04 1017 3 5 0.00 0.00
9:53 pm 21:53 Cloudy with Mist and Fog 63 17.2 62 16.7 97 97 ESE 8 13 30.04 1017 3 5 0.00 0.00
10:11 pm 22:11 Cloudy with Mist and Fog 63 17.2 62 16.7 97 97 ESE 9 15 30.04 1017 3 5 0.00 0.00
10:32 pm 22:32 Cloudy with Mist and Fog 63 17.2 62 16.7 97 97 ESE 8 13 30.04 1017 3 4 0.00 0.00
10:53 pm 22:53 Cloudy with Mist and Fog 63 17.2 63 17.2 100 100 ESE 6 9 30.04 1017 2 3 0.00 0.00
11:08 pm 23:08 Cloudy with Mist and Fog 63 17.2 63 17.2 100 100 E 3 6 30.05 1018 2 2 0.00 0.00
11:45 pm 23:45 Cloudy with Mist and Fog 63 17.2 63 17.2 100 100 ESE 5 7 30.05 1018 2 3 0.00 0.00
11:53 pm 23:53 Cloudy with Mist and Fog 63 17.2 63 17.2 100 100 ESE 5 7 30.04 1017 2 3 0.00 0.00

Powered by AerisWeather